ARSAT 2

Last updated on Sat Jun 14 2025 00:02:46 GMT+0000 (Coordinated Universal Time)

1 40941U 15054B 25164.28452608 -.00000209 00000+0 00000+0 0 9996 2 40941 0.0112 357.5319 0002092 79.4589 206.2637 1.00270552 35615
UTC large
Height (km)
Speed (km/s)
/
Latitude / Longitude
Inclination (degrees)
Orbital Period (minutes)
Azimuth
Elevation
Range (km)
Doppler Factor

Next 0 passes for location: London (51.5072 / 0.1276)

Sorry there are no passes over London.